This is the latest recevied weather packets stored in our database for station/object WW4HG. If no packets are shown the sender has not sent any weather packets the latest 10 day(s).
| Time | Temp. | Humidity | Pressure | Rain* | Wind** | Luminosity | Snow |
|---|---|---|---|---|---|---|---|
| 1777652907 | 18.89° C | 59% | 1014.6 hPa | 0 mm | - | 94 W/m² | - |
| 1777652603 | 18.89° C | 59% | 1014.3 hPa | 0 mm | - | 95 W/m² | - |
| 1777652300 | 19.44° C | 58% | 1015 hPa | 0 mm | - | 102 W/m² | - |
| 1777651997 | 19.44° C | 58% | 1015 hPa | 0 mm | - | 132 W/m² | - |
| 1777651693 | 19.44° C | 56% | 1014.6 hPa | 0 mm | - | 165 W/m² | - |
| 1777651390 | 18.89° C | 57% | 1015 hPa | 0 mm | - | 220 W/m² | - |
| 1777651088 | 18.89° C | 58% | 1015 hPa | 0 mm | - | 206 W/m² | - |
| 1777650784 | 18.89° C | 57% | 1014.6 hPa | 0 mm | - | 212 W/m² | - |
| 1777650481 | 18.89° C | 58% | 1015 hPa | 0 mm | - | 443 W/m² | - |
| 1777650178 | 18.33° C | 60% | 1015 hPa | 0 mm | - | 398 W/m² | - |
| 1777649876 | 18.33° C | 60% | 1015 hPa | 0 mm | - | 217 W/m² | - |
| 1777649573 | 18.33° C | 61% | 1015.3 hPa | 0 mm | - | 232 W/m² | - |
| 1777649269 | 18.33° C | 61% | 1015.3 hPa | 0 mm | - | 142 W/m² | - |
| 1777648966 | 18.33° C | 62% | 1015.3 hPa | 0 mm | - | 157 W/m² | - |
| 1777648664 | 18.33° C | 62% | 1015 hPa | 0 mm | - | 184 W/m² | - |
| 1777648359 | 18.33° C | 62% | 1015.3 hPa | 0 mm | - | 143 W/m² | - |
| 1777648056 | 18.33° C | 62% | 1015 hPa | 0 mm | - | 133 W/m² | - |
| 1777647752 | 18.33° C | 63% | 1015 hPa | 0 mm | - | 133 W/m² | - |
| 1777647448 | 18.33° C | 63% | 1015 hPa | 0 mm | - | 125 W/m² | - |
| 1777647146 | 17.78° C | 63% | 1015.3 hPa | 0 mm | - | 115 W/m² | - |
| 1777646842 | 17.78° C | 64% | 1015 hPa | 0 mm | - | 145 W/m² | - |
| 1777646538 | 18.33° C | 64% | 1015 hPa | 0 mm | - | 131 W/m² | - |
| 1777646234 | 17.78° C | 63% | 1015 hPa | 0 mm | - | 146 W/m² | - |
| 1777645932 | 17.78° C | 65% | 1015 hPa | 0 mm | - | 140 W/m² | - |
| 1777645629 | 17.78° C | 65% | 1014.6 hPa | 0 mm | - | 134 W/m² | - |
* Rain latest hour (hover to see other rain measurements)
** Current wind speed in m/s (hover to see current wind gust speed)